Location: Home
(42.5358°N, 72.7383°W)
Time: 14:15:14
(UTC-05:00)

COSMOS 2251 DEB - Visible Passes

Search period start: 28 November 2022 00:00
Search period end: 08 December 2022 00:00
Orbit: 653 x 906 km, 74.0° (Epoch: 21 November)

Date Brightness Start Highest point End Pass type
(mag) Time Alt. Az. Time Alt. Az. Time Alt. Az.
04 Dec ? 18:57:41 10° N 18:58:04 12° N 18:58:04 12° N visible
05 Dec ? 18:24:28 10° N 18:25:20 13° NNE 18:25:20 13° NNE visible
05 Dec ? 20:05:52 10° NNW 20:05:52 10° NNW 20:05:52 10° NNW visible
06 Dec ? 17:51:34 10° NNE 17:52:42 12° NNE 17:52:42 12° NNE visible
06 Dec ? 19:32:08 10° NNW 19:33:14 16° NNW 19:33:14 16° NNW visible
07 Dec ? 18:58:32 10° NNW 19:00:42 22° N 19:00:42 22° N visible
